Location: Bytom
(50.3454°N, 18.9136°E)
Time: 17:17:47
(UTC+01:00)

ISS - Visible Passes

Search period start: 16 January 2019 00:00
Search period end: 26 January 2019 00:00
Orbit: 404 x 407 km, 51.6° (Epoch: 17 January)

Date Brightness Start Highest point End Pass type
(mag) Time Alt. Az. Time Alt. Az. Time Alt. Az.
23 Jan -1.7 18:36:39 10° SSW 18:38:06 20° S 18:38:06 20° S visible
24 Jan -1.9 17:45:27 10° S 17:47:42 17° SE 17:48:29 16° ESE visible
24 Jan -0.9 19:20:29 10° WSW 19:21:11 15° WSW 19:21:11 15° WSW visible
25 Jan -3.2 18:28:40 10° SW 18:31:29 44° S 18:31:29 44° S visible
